This is the latest recevied weather packets stored in our database for station/object SM4JDW-10. If no packets are shown the sender has not sent any weather packets the latest 10 day(s).
| Time | Temp. | Humidity | Pressure | Rain* | Wind** | Luminosity | Snow |
|---|---|---|---|---|---|---|---|
| 1788090548 | 16.67° C | 78% | 1000.8 hPa | - | - | - | - |
| 1788088748 | 17.22° C | 76% | 1000.9 hPa | - | - | - | - |
| 1788086948 | 17.22° C | 73% | 1000.8 hPa | - | - | - | - |
| 1788085147 | 16.11° C | 75% | 1000.9 hPa | - | - | - | - |
| 1788083347 | 16.11° C | 76% | 1000.8 hPa | - | - | - | - |
| 1788081546 | 15.56° C | 76% | 1000.8 hPa | - | - | - | - |
| 1788079750 | 15.56° C | 77% | 1000.7 hPa | - | - | - | - |
| 1788077950 | 15.56° C | 77% | 1000.6 hPa | - | - | - | - |
| 1788076150 | 15° C | 77% | 1000.8 hPa | - | - | - | - |
| 1788074350 | 15° C | 78% | 1000.7 hPa | - | - | - | - |
| 1788072550 | 15° C | 79% | 1000.4 hPa | - | - | - | - |
| 1788070750 | 14.44° C | 81% | 1000.3 hPa | - | - | - | - |
| 1788068950 | 14.44° C | 80% | 1000.3 hPa | - | - | - | - |
| 1788067150 | 14.44° C | 81% | 1000.4 hPa | - | - | - | - |
| 1788065350 | 14.44° C | 81% | 1000.3 hPa | - | - | - | - |
| 1788063550 | 14.44° C | 82% | 1000.1 hPa | - | - | - | - |
| 1788061750 | 15° C | 82% | 1000 hPa | - | - | - | - |
| 1788059950 | 15° C | 81% | 1000.1 hPa | - | - | - | - |
| 1788058149 | 15° C | 82% | 999.9 hPa | - | - | - | - |
| 1788056349 | 15° C | 83% | 1000.1 hPa | - | - | - | - |
| 1788054549 | 15° C | 81% | 1000.1 hPa | - | - | - | - |
| 1788052749 | 15.56° C | 81% | 1000.2 hPa | - | - | - | - |
| 1788050949 | 15.56° C | 82% | 1000.1 hPa | - | - | - | - |
| 1788049149 | 15.56° C | 81% | 1000.2 hPa | - | - | - | - |
| 1788047349 | 15.56° C | 81% | 1000.2 hPa | - | - | - | - |
* Rain since midnight (hover to see other rain measurements)
** Current wind speed in m/s (hover to see current wind gust speed)